Regional Weather Roundup
Issued by NWS

Home | Current Version | Previous Version | Text Only | Print | Product List | Glossary Off
Versions: 1 2 3 4 5 6 7 8 9 10 11 12 13 14 15 16 17 18 19 20 21 22 23 24 25 26 27 28 29 30 31 32 33 34 35 36 37 38 39 40 41 42 43 44 45 46 47 48 49 50

000
ASUS43 KLOT 310112
RWRIL

ILLINOIS REGIONAL WEATHER ROUNDUP
NATIONAL WEATHER SERVICE CHICAGO/ROMEOVILLE IL
800 PM CDT THU JUL 30 2015

NOTE: "FAIR" INDICATES FEW OR NO CLOUDS BELOW 12,000 FEET WITH NO
SIGNIFICANT WEATHER AND/OR OBSTRUCTIONS TO VISIBILITY.

* THESE STATIONS ARE NOT UNDER NWS QUALITY CONTROL. THEY ALSO MAY NOT
  REPORT WEATHER SUCH AS PRECIPITATION OR FOG.

ILZ001-002-007-009-015-016-024-310200-
NORTHWEST ILLINOIS

CITY           SKY/WX    TMP DP  RH WIND       PRES   REMARKS
MOLINE         CLEAR     82  65  56 W8        30.04S HX  84
STERLING*      CLEAR     79  66  65 W7        30.00S HX  81
SAVANNA*       CLEAR     82  58  44 W7        30.03S HX  82
$$

ILZ003-004-008-010-011-017-018-310200-
NORTH CENTRAL ILLINOIS

CITY           SKY/WX    TMP DP  RH WIND       PRES   REMARKS
ROCKFORD       CLEAR     79  60  52 W7        30.02S HX  80
FREEPORT*      CLEAR     76  62  61 W6        30.04S
ROCHELLE*      CLEAR     77  63  60 W7        30.03S
DE KALB*       CLEAR     78  62  57 W8        30.03S HX  80
PERU*          CLEAR     78  66  66 W7        30.03F HX  80
$$

ILZ005-006-012>014-019>023-310200-
NORTHEAST ILLINOIS

CITY           SKY/WX    TMP DP  RH WIND       PRES   REMARKS
CHICAGO-OHARE  CLEAR     83  55  38 W13       29.99S HX  82
CHICAGO-MIDWAY PTCLDY    85  55  35 W14       29.99F HX  83
AURORA         CLEAR     76  63  64 W7        30.02S
LANSING*       CLEAR     81  58  45 W9        30.01S HX  81
JOLIET*        CLEAR     82  63  51 W3        30.02S HX  83
WAUKEGAN       CLEAR     79  56  45 CALM      29.97F HX  80
DUPAGE AIRPORT CLEAR     79  60  52 W7        30.00F HX  80
KANKAKEE*      CLEAR     78  66  66 W6        30.03F HX  80
WHEELING       CLEAR     83  53  35 W8        30.00S HX  82
MORRIS*        CLEAR     77  66  69 W5        30.01S
ROMEOVILLE*    CLEAR     79  59  49 W7        30.01F HX  80
NORTHERLY ISL    N/A     84  52  33 W8          N/A  HX  82
$$

LMZ740>746-310200-
SOUTHERN LAKE MICHIGAN

STATION/POSITION SKY/WX   TEMP    WIND        PRES    VSBY  WAVE
                          AIR SEA DIR/SP/G                  HT/PER
                          (F)     (DEG/KT/KT) (MB)    (MI)  (FT/S)
HARRISON CRIB              84     300/ 17/ 22   N/A
BURNHAM HARBOR             84     280/  9/ 14   N/A
CALUMET HARBOR             85     280/  6/ 12   N/A
BURNS HARBOR               87      CALM  /  1 1015.9F
MICHIGAN CITY              80     210/  3/  4   N/A
MICHIGAN CITY 6N           77 75  220/  4/  4   N/A           1
ST. JOSEPH                 76 74  260/  8/  8   N/A           1/ 3
$$

ILZ025>027-034>036-040-047-049-050-058-095>099-310200-
WEST-CENTRAL ILLINOIS

CITY           SKY/WX    TMP DP  RH WIND       PRES   REMARKS
QUINCY         CLEAR     81  63  54 W6        30.10S HX  82
GALESBURG*     CLEAR     78  66  65 W6        30.07S HX  80
MACOMB*        CLEAR     78  67  70 W5        30.09S HX  80
JACKSONVILLE*  CLEAR     81  69  67 SW5       30.08F HX  83
PITTSFIELD*    CLEAR     82  66  59 CALM      30.11S HX  84
$$

ILZ028>032-037-038-041>044-048-051>054-059>061-310200-
CENTRAL ILLINOIS

CITY           SKY/WX    TMP DP  RH WIND       PRES   REMARKS
PONTIAC        CLEAR     77  70  78 W6        30.04S
BLOOMINGTON    CLEAR     82  65  56 W10       30.07S HX  84
DECATUR        CLEAR     82  62  50 W8        30.07S HX  83
PEORIA         CLEAR     83  64  52 W5        30.06S HX  84
LACON*         CLEAR     80  65  60 W5        30.03S HX  82
LINCOLN*       CLEAR     83  63  51 CALM      30.05S HX  84
SPRINGFIELD    CLEAR     78  70  76 W6        30.07S HX  80
TAYLORVILLE    CLEAR     75  68  78 W6        30.08S
$$

ILZ033-039-045-046-055>057-062-063-310200-
EAST-CENTRAL ILLINOIS

CITY           SKY/WX    TMP DP  RH WIND       PRES   REMARKS
CHAMPAIGN      CLEAR     77  70  79 W5        30.06S
DANVILLE*      CLEAR     71  68  89 CALM      30.03S
RANTOUL*       CLEAR     80  68  67 CALM      30.05S HX  82
MATTOON        CLEAR     77  62  59 W5        30.06S
PARIS*         CLEAR     76  68  76 CALM      30.06S
$$

ILZ079-100>102-310200-
SOUTHWEST ILLINOIS

CITY           SKY/WX    TMP DP  RH WIND       PRES   REMARKS
BELLEVILLE     MOCLDY    80  69  67 CALM      30.08F HX  83
CAHOKIA*       PTCLDY    83  62  49 NW5       30.09S HX  84
SPARTA*        PTCLDY    81  67  61 CALM      30.10F HX  84
$$

ILZ064>066-069>071-074>076-080>082-084>086-088>090-092>094-310200-
SOUTH-CENTRAL ILLINOIS

CITY           SKY/WX    TMP DP  RH WIND       PRES   REMARKS
CARBONDALE     PTCLDY    79  69  71 NW3       30.09R HX  81
CAIRO*         CLEAR     77  69  77 CALM      30.08S
EFFINGHAM*     PTCLDY    79  63  57 SW5       30.08F HX  81
MARION         PTCLDY    77  68  73 CALM      30.09S
MT. VERNON     PTCLDY    77  63  61 CALM      30.09S
CENTRALIA*     MOCLDY    80  62  55 W6        30.09S HX  81
SALEM*         MOCLDY    81  66  60 W5        30.09S HX  83
METROPOLIS*    CLEAR     77  71  82 CALM      30.08S
$$

ILZ067-068-072-073-078-083-087-091-310200-
SOUTHEAST ILLINOIS

CITY           SKY/WX    TMP DP  RH WIND       PRES   REMARKS
LAWRENCEVILLE  PTCLDY    79  67  66 W5        30.06S HX  81
FLORA*         PTCLDY    80  63  56 W6        30.08S HX  81
FAIRFIELD*     PTCLDY    77  67  70 CALM      30.07S
HARRISBURG*    PTCLDY    80  69  70 CALM      30.09S HX  83
ROBINSON*      PTCLDY    76  68  76 W3        30.06S
CARMI*         PTCLDY    77  65  66 CALM      30.06F
$$

ABBREVIATIONS USED IN REMARKS
   TC - TEMPERATURE IN CELSIUS
  WCI - WIND CHILL INDEX
   HX - HEAT INDEX
  VSB - VISIBILITY
$$




USA.gov is the U.S. government's official web portal to all federal, state and local government web resources and services.